Regional Weather Roundup
Issued by NWS

Home | Current Version | Previous Version | Text Only | Print | Product List | Glossary On
Versions: 1 2 3 4 5 6 7 8 9 10 11 12 13 14 15 16 17 18 19 20 21 22 23 24 25 26 27 28 29 30 31 32 33 34 35 36 37 38 39 40 41 42 43 44 45 46 47 48 49 50
000
ASUS43 KLMK 120702
RWRKY
KENTUCKY REGIONAL WEATHER ROUNDUP
NATIONAL WEATHER SERVICE LOUISVILLE KY
200 AM EST TUE DEC 12 2017

NOTE "FAIR" INDICATES FEW OR NO CLOUDS BELOW 12,000 FEET
WITH NO SIGNIFICANT WEATHER AND/OR OBSTRUCTIONS TO VISIBILITY.

KYZ001>023-026-027-061>063-070>075-120800-
WESTERN AND SOUTH CENTRAL KENTUCKY

CITY           SKY/WX    TMP DP  RH WIND       PRES   REMARKS
PADUCAH        CLOUDY    48  31  51 NW12      29.97R
HENDERSON      CLOUDY    43  34  70 NW16G22   29.95R
OWENSBORO      CLOUDY    44  33  65 NW18      29.92R
HOPKINSVILLE   CLOUDY    47  30  50 NW16      29.92R
BOWLING GREEN  PTCLDY    47  31  53 NW6       29.90R
GLASGOW        NOT AVBL
$$

KYZ024-025-028>034-038-045-046-053-120800-
NORTH CENTRAL KENTUCKY

CITY           SKY/WX    TMP DP  RH WIND       PRES   REMARKS
LOUISVILLE/SDF CLOUDY    44  31  60 NW17G29   29.85R
LOUISVILLE/LOU CLOUDY    43  33  68 W13       29.85R
FORT KNOX      CLOUDY    43  31  63 NW14G26   29.84R
$$

KYZ035>037-039>044-047>052-055>060-089>105-120800-
NORTHEAST KENTUCKY

CITY           SKY/WX    TMP DP  RH WIND       PRES   REMARKS
LEXINGTON      MOCLDY    43  30  60 W15G24    29.81R
COVINGTON      CLOUDY    38  29  70 W22G30    29.77R WCI  27
FRANKFORT      MOCLDY    43  29  57 W10       29.81R
$$

KYZ054-064>069-076>088-106>120-120800-
SOUTHEAST KENTUCKY

CITY           SKY/WX    TMP DP  RH WIND       PRES   REMARKS
JACKSON        CLOUDY    45  27  49 W9        29.77S
LONDON         MOCLDY    45  26  47 W13G20    29.82R
SOMERSET       PTCLDY    43  28  56 W9        29.86R
MIDDLESBORO    CLOUDY    49  29  47 W8G20     29.82R
MONTICELLO     PTSUNNY   44  29  55 W12G21    29.87S
$$





USA.gov is the U.S. government's official web portal to all federal, state and local government web resources and services.